Temperature
21 20 20 20 26 28 28 28 28 28 27 26 26 26 26 25 25 23 20 20 19 19 19 19 19 19 19 18 18 18 18 18 18 19 19 19 18 18 18 18 18 18 18 18 18 18 18 18 18
20 20 20 24 28 28 27 28 27 27 27 26 26 26 25 24 22 21 20 20 19 19 19 18 19 19 19 18 18 18 18 18 18 19 18 19 18 18 18 18 18 18 18 18 18 18 18 18 18
20 20 23 28 28 28 27 28 27 27 26 26 26 25 24 23 21 21 20 19 19 19 19 18 19 19 18 19 18 18 18 18 18 18 19 18 18 18 18 18 18 18 18 18 18 18 18 18 18
20 22 26 29 28 28 28 28 28 27 26 26 26 25 23 21 21 20 20 20 20 19 19 18 19 19 18 18 18 18 18 18 18 18 18 18 18 18 18 18 18 18 18 18 18 18 18 18 18
22 26 29 29 29 28 29 28 28 28 27 26 26 25 23 20 20 20 20 20 20 19 19 18 19 19 19 18 18 18 19 18 18 18 18 18 18 18 18 18 18 18 18 18 18 18 18 18 18
25 29 29 29 29 29 29 28 28 28 27 26 26 25 22 20 20 20 20 20 20 19 19 18 19 19 19 18 18 18 18 18 18 18 18 18 18 18 18 18 18 18 18 18 18 18 18 18 18
27 30 29 29 29 28 28 28 28 28 27 26 25 25 23 21 20 20 20 20 19 19 19 19 18 18 18 19 19 19 18 18 18 18 18 18 18 18 18 18 18 18 18 18 18 18 18 18 18
26 30 30 30 29 28 28 27 27 27 26 25 25 25 24 21 20 20 20 20 19 19 19 19 19 18 18 18 18 19 18 18 18 18 18 18 18 18 18 18 18 18 18 18 18 18 18 18 18
26 30 30 30 30 29 28 28 27 26 25 25 24 24 23 21 20 20 20 20 19 19 19 19 19 18 18 18 18 18 18 18 18 18 18 18 18 18 18 18 18 18 18 18 18 18 18 18 18
28 30 30 30 30 29 28 28 27 27 26 25 24 22 21 21 21 21 21 20 20 19 19 19 18 18 18 18 18 17 18 18 18 18 18 18 17 17 17 17 18 18 18 18 18 18 18 18 17
30 30 30 30 29 29 28 28 27 28 27 26 24 23 21 21 21 21 21 20 20 19 19 19 18 18 18 18 17 17 17 18 17 17 17 17 17 17 17 17 17 17 17 17 17 17 17 17 17
30 30 29 29 28 28 28 27 27 27 26 25 24 23 22 22 21 21 21 20 20 19 19 19 18 18 18 17 17 17 17 17 18 17 17 17 17 17 17 17 17 17 17 17 17 17 17 17 17
30 30 29 29 28 28 28 28 27 26 25 24 23 23 22 22 21 21 21 20 19 19 19 18 18 18 18 18 17 17 17 17 17 17 17 17 17 17 17 17 17 17 17 17 17 17 17 17 17
30 30 29 29 29 28 28 28 27 26 25 24 23 23 22 22 22 21 20 20 19 19 19 18 18 18 18 18 18 17 17 17 17 17 17 17 17 17 17 17 17 17 17 17 17 17 17 17 17
29 30 30 30 29 29 29 28 28 26 25 24 24 23 22 22 21 21 20 20 19 19 19 18 18 18 18 18 17 17 17 17 17 17 17 17 17 17 17 17 17 17 17 17 17 17 17 17 17
31 31 30 30 30 29 29 29 28 26 25 25 24 23 22 22 21 21 20 19 19 19 19 18 18 18 18 18 17 17 17 17 17 17 17 17 17 17 17 17 17 17 17 17 17 17 17 17 17
31 31 31 30 30 30 30 29 28 26 26 25 24 24 23 22 21 21 20 20 19 19 19 19 18 18 18 18 17 17 17 17 17 17 17 17 17 17 17 17 17 16 16 16 17 17 17 17 17
31 31 31 31 31 30 30 30 28 27 27 26 25 24 23 23 22 21 20 20 19 19 19 19 18 18 18 18 17 17 17 17 17 16 16 16 17 17 17 16 17 16 16 16 16 16 16 16 17
31 31 31 31 31 30 30 30 29 28 27 27 26 25 24 23 22 21 20 20 19 19 19 18 18 18 18 17 17 17 17 17 16 16 16 16 16 16 16 16 16 16 16 16 16 16 16 16 16
31 31 31 31 30 30 30 30 29 28 27 27 26 25 24 23 22 21 21 20 20 19 19 18 18 18 18 18 17 17 17 17 17 16 17 16 16 16 16 16 16 16 16 16 16 16 16 16 16
31 31 31 30 30 30 30 30 29 29 27 27 26 26 25 24 23 22 21 20 20 19 19 19 18 18 18 18 17 17 17 17 17 16 16 16 16 16 16 16 16 16 16 16 16 16 16 16 16
31 31 31 30 30 31 30 30 30 29 28 28 27 26 26 25 23 22 21 21 20 19 19 19 18 18 18 18 17 17 17 17 17 16 16 16 16 16 16 16 16 16 16 16 16 16 16 16 16
31 31 31 31 31 31 31 30 30 30 29 29 28 27 26 25 24 23 22 21 20 20 19 19 19 18 18 18 18 17 17 17 17 16 16 16 16 16 16 16 16 16 16 16 16 16 16 16 16
31 30 30 31 31 30 30 30 30 31 30 30 29 27 26 25 24 23 22 21 20 20 19 19 19 18 18 18 18 17 17 17 17 16 16 16 16 16 16 16 16 16 16 16 16 15 15 16 16
31 31 30 30 30 30 30 30 30 30 30 30 29 28 26 25 24 23 22 21 21 20 20 19 19 18 18 18 18 17 17 17 17 16 16 16 16 16 16 16 16 16 16 15 15 15 15 15 15
31 31 30 29 30 31 30 30 31 30 29 29 28 27 26 25 24 23 23 22 21 20 20 19 19 19 18 18 18 18 17 17 17 16 16 16 16 16 16 16 16 15 15 15 15 15 15 15 15
31 31 32 31 31 30 31 31 30 30 29 29 28 27 26 25 24 24 23 22 21 20 20 19 19 19 18 18 18 18 17 17 17 16 16 16 16 16 16 16 15 15 15 15 15 15 15 15 15
32 32 32 31 29 29 30 30 30 29 29 29 28 27 26 25 24 24 23 22 22 21 20 19 19 19 18 18 18 18 17 17 17 16 16 16 16 16 16 16 15 15 15 15 15 15 15 15 15
31 31 31 31 31 30 29 30 31 30 30 29 29 27 26 26 25 24 23 22 21 21 20 19 19 19 18 18 18 17 17 17 17 16 16 16 16 16 16 16 15 15 15 15 15 15 15 15 15
32 32 31 30 29 30 30 30 31 30 30 29 28 27 26 25 24 24 23 22 21 21 20 20 19 19 19 18 18 18 17 17 17 16 16 16 16 16 16 15 15 15 15 15 15 15 14 14 14
Wind_Speed
12 9 5 4 3 4 10 8 7 7 6 7 6 5 6 7 6 5 5 5 6 7 9 11 9 10 10 10 10 10 10 11 11 10 10 10 10 10 10 10 9 9 9 9 9 9 8 8 8
8 5 5 4 1 8 10 8 8 8 7 5 5 6 7 8 7 6 6 6 6 8 9 10 10 9 9 10 10 10 10 9 9 9 9 10 9 9 9 9 9 8 8 8 8 8 8 8 8
6 5 4 1 7 9 10 8 7 8 6 4 5 6 6 6 6 5 6 7 8 8 9 11 9 9 9 9 10 9 9 8 8 8 8 9 9 8 8 8 8 8 7 7 7 7 7 7 7
4 4 3 4 10 10 8 7 5 6 6 5 5 6 7 6 4 6 8 8 9 8 8 12 9 9 9 9 9 9 8 8 8 7 7 7 7 7 7 7 7 7 7 6 6 6 6 6 6
4 3 3 8 11 9 7 6 4 5 6 6 6 8 8 6 7 9 9 8 8 8 8 11 9 9 9 9 8 8 7 7 7 6 6 6 6 6 6 6 6 6 6 6 6 6 6 6 6
3 2 5 9 10 8 7 5 5 6 7 6 6 7 7 7 7 8 8 8 8 7 7 10 10 9 9 8 7 7 7 6 6 6 5 5 5 5 5 5 5 5 5 5 5 6 6 6 6
3 3 7 9 8 8 6 5 5 6 6 5 4 7 7 7 7 8 8 8 7 7 6 6 8 9 9 8 7 5 5 5 5 5 5 5 5 5 5 5 5 5 4 5 5 5 5 6 6
3 1 6 7 7 8 6 5 5 5 6 5 3 5 7 8 8 8 8 8 7 6 5 5 6 7 7 8 7 5 4 3 4 4 4 4 5 6 5 6 5 5 4 4 4 5 5 6 6
3 2 7 8 7 7 6 5 5 5 7 5 5 7 9 11 9 9 8 7 6 5 4 4 4 5 5 6 7 6 4 3 3 4 5 5 4 4 5 3 4 3 4 4 4 5 6 7 9
2 5 8 7 6 5 5 5 5 5 6 6 8 9 11 11 9 8 7 6 6 5 4 4 3 4 3 3 4 3 2 3 2 2 2 3 2 2 2 4 3 3 4 6 6 6 8 10 8
2 5 5 5 5 4 5 5 4 4 5 6 8 10 11 10 9 7 6 6 6 5 4 4 3 3 3 2 2 1 1 1 1 1 1 1 1 1 1 2 4 5 6 6 6 8 6 6 5
2 4 3 4 3 3 4 4 4 4 5 7 8 10 10 9 8 7 6 6 5 5 4 3 3 3 2 1 1 1 1 1 1 1 1 1 1 0 1 1 2 3 3 3 4 3 4 5 5
2 3 4 3 3 3 4 4 4 6 6 8 9 9 9 9 7 6 6 5 5 4 4 3 3 3 2 2 1 1 1 1 1 1 0 1 1 1 1 1 2 2 2 3 3 3 3 4 4
2 2 2 2 4 4 4 4 4 6 7 8 8 8 8 7 7 7 6 5 5 4 4 3 3 4 3 3 2 1 1 1 0 1 0 1 1 1 1 2 2 2 2 2 2 3 3 3 3
1 1 1 2 3 3 3 4 5 7 7 7 7 7 7 7 7 6 5 5 5 5 4 3 4 3 3 3 3 2 1 1 1 0 0 1 2 2 2 2 2 2 2 2 2 2 3 3 3
4 3 1 3 2 2 4 3 6 8 8 7 6 7 7 7 6 5 5 5 4 4 4 3 3 3 3 3 2 1 1 0 0 0 0 1 2 2 3 2 2 2 2 2 2 2 2 2 2
4 2 2 2 2 2 3 2 6 7 7 7 7 7 6 7 6 6 5 5 5 4 4 4 3 3 3 3 3 2 1 0 1 0 1 1 1 2 3 2 2 3 2 2 2 1 2 2 2
3 4 2 1 1 3 3 1 5 7 7 6 6 6 6 7 7 6 6 5 5 4 4 4 4 3 3 3 3 2 1 1 1 1 1 2 1 2 2 2 2 3 2 2 2 2 2 3 3
6 6 4 2 1 4 4 2 4 6 7 7 6 6 6 6 6 7 6 6 5 5 4 4 4 3 3 3 3 2 2 1 1 0 1 1 1 1 2 2 1 2 2 2 2 2 2 2 2
7 6 4 1 1 3 3 4 4 6 8 7 7 7 6 7 7 7 7 6 6 5 5 5 4 4 4 3 2 1 1 1 1 1 0 0 1 2 1 2 2 2 1 1 2 2 3 2 2
7 7 5 3 2 4 5 4 5 6 7 7 8 7 7 7 8 8 8 7 6 6 6 4 4 4 4 3 3 2 2 1 1 1 1 0 1 1 2 2 3 2 2 1 2 2 2 2 2
6 4 5 5 6 3 5 3 3 6 7 9 9 9 8 8 9 9 8 7 7 7 6 5 5 4 4 4 3 3 3 2 2 1 0 0 1 1 1 2 2 2 2 1 2 1 2 3 2
4 2 4 6 7 6 5 6 2 5 6 8 9 9 9 9 9 9 8 8 7 7 6 6 5 5 4 4 3 3 3 2 1 1 1 1 0 1 1 1 2 2 2 1 2 1 2 2 2
4 4 5 7 8 7 4 6 2 3 3 5 7 8 9 9 9 9 8 8 7 7 7 6 6 5 5 4 4 3 3 2 2 2 1 2 1 1 1 1 1 2 2 1 1 2 1 2 2
9 8 6 6 6 4 2 5 2 1 2 3 5 7 8 9 9 10 9 9 8 8 7 6 6 6 5 5 4 4 3 3 3 3 2 2 1 1 1 1 1 2 2 1 2 2 2 2 2
9 10 7 6 6 3 4 4 0 2 2 3 4 6 8 9 9 10 10 9 9 8 8 7 7 6 6 5 4 3 3 3 2 2 2 1 1 1 1 1 1 1 2 2 1 2 2 1 2
7 8 8 8 8 7 3 2 3 4 4 5 6 6 7 9 9 10 9 9 9 9 8 7 7 6 5 5 5 4 3 2 2 1 2 1 1 1 1 1 1 1 1 2 2 1 2 2 2
8 7 6 7 7 8 5 5 2 5 6 6 7 7 7 8 9 9 9 9 9 8 8 7 7 6 5 5 4 4 3 3 2 2 1 1 1 1 1 1 1 1 1 1 2 2 1 2 2
8 8 7 7 7 8 7 2 2 2 4 6 7 7 7 8 8 8 8 9 9 8 8 8 7 6 5 5 5 4 3 3 3 2 2 1 1 1 1 1 1 1 1 1 2 3 2 2 2
10 10 10 9 8 8 9 3 4 2 4 5 6 7 7 7 8 8 8 9 9 8 8 8 7 6 6 5 5 5 4 3 3 2 2 2 1 1 1 1 1 2 2 2 2 3 2 2 3
Wind_Direction
175 179 204 232 222 84 68 66 67 71 64 61 59 57 55 45 31 69 85 96 107 117 118 123 119 122 124 125 125 124 125 125 128 132 135 139 142 142 143 143 142 142 143 143 142 140 141 143 143
172 181 225 240 53 75 71 65 66 63 76 82 70 67 65 62 59 87 102 105 117 117 121 119 120 123 126 128 129 127 129 131 134 135 137 140 144 146 145 147 148 148 149 147 145 144 147 149 151
178 219 257 54 60 64 70 68 72 81 83 74 69 57 52 64 78 91 104 122 119 115 117 113 124 128 130 131 132 132 134 136 136 140 141 143 147 148 149 151 153 153 154 154 153 155 158 160 161
205 223 226 74 70 66 70 72 84 95 84 70 76 80 76 63 72 101 115 119 115 116 117 113 122 123 124 126 128 131 135 135 134 136 140 142 144 147 152 156 157 159 160 162 164 164 171 174 175
239 247 104 80 73 73 70 68 79 82 77 77 82 89 87 75 90 110 121 119 114 113 112 116 119 119 120 122 126 130 130 130 134 137 140 141 144 150 157 159 158 160 166 170 173 174 180 187 190
244 238 70 72 75 76 75 71 85 85 87 89 92 96 91 105 111 119 125 122 115 113 115 120 126 122 120 119 123 127 131 135 139 142 147 153 160 165 169 171 169 172 179 182 182 186 198 195 201
306 47 63 69 77 78 68 70 75 86 87 78 88 96 109 117 119 125 123 122 118 115 116 121 130 131 131 125 123 123 129 136 144 149 154 160 170 175 174 178 183 188 194 197 196 196 199 201 209
305 10 72 69 71 75 83 85 81 84 89 88 80 94 117 130 133 131 124 122 117 116 118 117 120 125 134 132 128 126 130 136 143 151 160 168 176 179 179 187 182 192 202 207 207 203 205 208 212
274 54 59 53 58 79 98 96 91 98 103 95 81 83 108 131 138 134 128 124 118 115 116 116 117 119 123 124 128 142 148 150 164 162 167 189 188 183 180 165 155 186 204 208 212 216 216 216 210
298 50 50 43 49 80 94 98 110 124 113 111 108 104 121 136 143 141 136 134 129 127 124 116 110 109 115 115 119 136 151 140 160 126 152 172 167 199 192 139 178 205 215 213 215 221 222 226 216
31 47 48 57 63 91 104 103 110 116 103 112 129 134 140 144 148 146 138 136 132 137 129 126 121 119 120 117 130 120 117 118 145 120 141 165 193 187 209 190 187 207 216 221 205 216 227 226 226
71 58 44 57 78 105 103 106 97 77 80 106 125 139 147 151 151 150 143 139 135 135 133 126 127 128 126 119 127 143 138 115 101 108 268 188 194 237 225 245 235 225 222 221 237 230 230 237 233
78 59 56 76 92 104 115 115 102 97 106 118 129 140 150 153 154 152 145 143 142 137 136 135 142 145 153 157 217 143 147 144 110 75 91 318 280 276 280 282 266 256 251 221 233 243 239 237 229
48 44 52 98 111 121 121 118 123 112 127 134 141 150 154 156 158 158 158 155 155 150 150 153 166 161 176 178 184 182 176 144 120 112 85 294 301 311 292 277 279 272 267 271 255 247 244 240 241
202 169 121 121 133 138 159 129 125 138 150 148 151 155 158 162 162 165 163 165 164 161 157 165 168 166 179 189 196 191 193 164 162 147 171 282 287 290 289 278 274 286 265 250 251 255 250 237 230
223 225 128 115 157 181 240 97 121 155 163 160 160 161 170 172 174 173 174 174 173 167 161 169 172 167 173 178 198 196 201 148 179 218 232 276 299 291 283 285 281 280 267 256 243 255 255 248 242
215 294 18 103 165 212 244 96 134 167 174 167 168 169 177 175 179 177 178 176 177 174 167 168 174 180 184 179 188 187 177 272 283 283 301 307 291 287 283 299 315 283 269 266 269 241 268 263 257
316 319 318 343 149 241 250 138 150 176 189 180 174 176 183 184 182 176 173 171 171 172 169 168 175 186 192 187 192 188 187 210 259 293 329 331 318 313 289 279 304 287 275 268 284 278 269 271 266
294 294 303 339 334 258 257 242 185 186 197 193 187 184 187 189 175 169 170 171 168 168 169 174 182 184 191 192 206 194 193 195 219 248 354 325 309 307 300 308 295 284 280 287 280 275 255 255 256
266 269 277 274 257 268 269 256 204 195 201 202 196 192 188 181 173 172 173 173 172 170 176 177 183 189 195 194 206 202 185 193 188 198 132 287 302 296 284 308 297 300 291 287 287 282 288 278 243
257 266 278 286 252 239 257 228 195 188 200 201 203 199 192 186 182 177 178 179 177 174 181 180 180 183 194 196 187 166 163 178 184 190 176 266 301 318 332 328 322 319 302 300 278 274 274 280 255
258 266 261 252 255 262 268 286 184 183 197 202 201 199 194 185 181 178 177 179 178 177 177 174 173 175 181 191 194 198 199 200 207 219 171 209 269 309 318 318 316 314 311 309 281 291 282 278 275
267 259 247 255 263 269 250 277 172 187 205 200 197 196 193 182 178 177 176 175 174 172 170 166 166 169 174 185 187 207 212 219 212 203 193 262 263 288 304 306 311 308 308 319 324 340 294 284 293
198 212 227 238 251 261 265 277 266 186 199 190 184 189 188 180 175 174 173 170 171 168 169 166 164 170 174 181 186 200 206 222 225 229 240 249 251 277 304 285 301 298 323 330 295 297 277 290 295
220 237 247 244 239 259 215 263 299 115 177 187 179 178 179 179 178 177 175 173 172 171 171 170 168 172 176 182 190 202 214 217 224 247 241 271 275 268 296 295 284 293 299 294 295 285 301 287 287
228 247 265 284 292 288 205 261 117 127 148 167 168 167 171 177 179 178 176 174 173 173 172 171 174 174 172 178 187 197 213 227 233 247 272 267 292 321 348 307 276 283 283 274 274 278 282 286 276
229 240 269 275 278 282 266 243 200 179 175 169 164 162 168 174 176 178 174 174 173 172 171 172 171 172 174 176 180 185 202 222 225 222 241 258 295 297 297 277 265 256 266 276 267 283 284 283 277
258 254 248 261 277 282 274 263 240 181 183 174 169 166 164 170 173 174 173 173 171 169 167 168 167 169 175 174 182 181 189 198 209 222 234 294 310 329 308 280 275 276 268 265 266 271 278 275 278
209 225 244 262 274 280 287 295 83 178 186 182 175 167 164 168 170 170 171 170 169 170 167 167 166 168 171 174 175 174 178 185 193 199 219 234 258 274 279 294 295 286 287 282 280 289 289 286 291
240 240 237 248 256 264 279 283 100 133 172 171 167 160 161 162 166 168 168 168 170 174 171 169 168 171 172 169 171 170 173 181 194 195 213 222 233 250 265 289 298 302 307 302 290 291 299 296 295
Height
1508 1508 1509 1511 1505 1499 1503 1501 1498 1500 1503 1506 1507 1506 1507 1509 1511 1520 1523 1521 1522 1523 1522 1522 1522 1523 1524 1525 1527 1528 1529 1530 1532 1533 1534 1535 1537 1538 1539 1540 1541 1542 1543 1544 1545 1546 1547 1548 1549
1510 1509 1511 1508 1499 1505 1508 1501 1502 1504 1507 1509 1509 1509 1510 1514 1518 1521 1522 1522 1523 1524 1524 1524 1524 1525 1526 1527 1528 1530 1530 1532 1533 1534 1535 1536 1538 1539 1540 1541 1542 1543 1544 1545 1546 1547 1548 1549 1549
1510 1510 1511 1501 1500 1506 1508 1504 1504 1507 1509 1509 1510 1512 1514 1518 1521 1522 1523 1523 1524 1525 1526 1525 1526 1527 1528 1528 1530 1531 1532 1533 1534 1535 1537 1538 1539 1540 1541 1542 1543 1544 1544 1545 1546 1547 1548 1549 1550
1511 1512 1508 1501 1504 1503 1503 1504 1505 1507 1510 1511 1511 1514 1519 1522 1523 1523 1523 1525 1526 1527 1528 1527 1527 1528 1529 1530 1531 1532 1533 1534 1535 1536 1537 1538 1539 1540 1541 1542 1543 1544 1545 1545 1546 1547 1548 1549 1549
1512 1508 1500 1501 1503 1503 1504 1506 1506 1507 1510 1512 1513 1516 1521 1524 1524 1524 1525 1526 1528 1528 1530 1529 1529 1529 1530 1531 1532 1533 1534 1535 1536 1537 1538 1539 1539 1540 1541 1542 1543 1544 1545 1545 1546 1547 1547 1548 1549
1511 1502 1501 1505 1505 1503 1505 1507 1507 1508 1511 1514 1515 1517 1523 1525 1525 1526 1527 1528 1529 1530 1531 1530 1530 1531 1532 1532 1533 1534 1535 1536 1536 1537 1538 1539 1540 1540 1541 1542 1543 1544 1545 1545 1546 1546 1546 1547 1548
1509 1499 1501 1502 1504 1505 1507 1509 1509 1510 1513 1515 1517 1518 1523 1526 1527 1528 1528 1529 1530 1531 1532 1532 1533 1532 1532 1533 1534 1535 1536 1536 1536 1537 1537 1538 1539 1540 1541 1542 1542 1543 1544 1545 1545 1546 1546 1547 1547
1509 1501 1500 1500 1504 1506 1508 1510 1511 1512 1515 1518 1518 1519 1523 1527 1528 1529 1530 1531 1531 1532 1533 1533 1534 1534 1535 1535 1535 1535 1536 1536 1536 1536 1537 1538 1539 1540 1540 1541 1542 1542 1543 1543 1544 1545 1545 1546 1546
1510 1503 1503 1501 1503 1506 1509 1510 1513 1515 1516 1519 1520 1522 1524 1527 1528 1530 1531 1532 1532 1533 1533 1534 1534 1535 1536 1536 1536 1536 1536 1536 1536 1536 1537 1538 1540 1541 1541 1541 1541 1541 1542 1542 1543 1543 1544 1544 1545
1507 1503 1504 1502 1503 1505 1509 1511 1513 1514 1516 1519 1522 1524 1526 1527 1529 1530 1531 1532 1533 1533 1534 1534 1535 1536 1536 1537 1537 1537 1538 1537 1537 1537 1538 1539 1539 1540 1541 1540 1540 1540 1540 1541 1541 1542 1542 1543 1544
1506 1505 1504 1505 1506 1508 1510 1512 1513 1513 1514 1518 1521 1524 1526 1528 1529 1530 1532 1533 1534 1534 1534 1535 1535 1535 1536 1537 1537 1538 1538 1538 1538 1538 1538 1538 1539 1539 1540 1540 1540 1539 1539 1540 1540 1541 1541 1542 1542
1507 1506 1507 1507 1509 1509 1511 1512 1513 1514 1517 1520 1522 1524 1526 1528 1529 1530 1532 1533 1534 1534 1535 1535 1535 1535 1536 1537 1538 1538 1538 1538 1538 1538 1538 1538 1539 1539 1539 1538 1539 1539 1539 1539 1539 1540 1540 1539 1540
1506 1507 1508 1509 1509 1510 1511 1513 1515 1517 1519 1521 1523 1525 1527 1528 1529 1531 1532 1533 1534 1534 1535 1535 1535 1535 1535 1536 1536 1538 1538 1538 1538 1538 1537 1537 1538 1538 1538 1537 1537 1537 1537 1537 1537 1538 1538 1538 1538
1507 1507 1507 1508 1509 1510 1511 1513 1515 1518 1520 1522 1524 1525 1527 1528 1530 1531 1532 1533 1534 1534 1535 1535 1535 1535 1535 1536 1536 1537 1538 1537 1538 1537 1537 1537 1537 1537 1536 1536 1535 1536 1536 1536 1536 1536 1536 1536 1537
1508 1507 1506 1506 1507 1509 1510 1511 1513 1518 1520 1522 1524 1525 1527 1528 1530 1531 1532 1533 1533 1534 1534 1535 1535 1535 1535 1536 1536 1537 1538 1537 1537 1537 1536 1536 1536 1536 1535 1535 1535 1535 1534 1534 1534 1534 1535 1535 1535
1505 1503 1505 1505 1506 1508 1510 1512 1513 1517 1519 1521 1523 1525 1527 1528 1529 1530 1532 1532 1533 1534 1534 1534 1535 1535 1535 1535 1536 1537 1538 1537 1537 1537 1536 1535 1535 1534 1534 1534 1534 1533 1534 1533 1533 1533 1534 1534 1534
1502 1504 1504 1504 1504 1505 1506 1508 1512 1516 1517 1519 1522 1524 1526 1527 1529 1530 1531 1532 1532 1533 1533 1534 1534 1535 1535 1535 1536 1537 1537 1537 1536 1536 1536 1535 1534 1533 1533 1533 1533 1533 1533 1533 1533 1533 1533 1533 1532
1505 1502 1503 1503 1501 1503 1504 1504 1509 1513 1515 1516 1519 1522 1524 1526 1527 1529 1530 1531 1532 1532 1533 1533 1534 1534 1534 1535 1535 1536 1536 1536 1536 1536 1535 1534 1534 1533 1532 1532 1531 1532 1532 1531 1531 1531 1531 1531 1531
1500 1502 1503 1501 1500 1502 1502 1503 1506 1510 1512 1514 1516 1519 1522 1524 1526 1528 1529 1530 1531 1531 1532 1532 1533 1533 1533 1534 1535 1535 1536 1535 1535 1535 1534 1533 1533 1532 1531 1532 1530 1530 1530 1530 1530 1530 1530 1530 1529
1500 1502 1501 1500 1500 1501 1501 1502 1502 1506 1510 1512 1514 1517 1519 1522 1524 1526 1527 1529 1530 1530 1531 1531 1532 1532 1532 1533 1533 1534 1534 1535 1535 1534 1534 1533 1532 1532 1532 1530 1530 1529 1529 1529 1528 1528 1528 1529 1528
1499 1499 1499 1501 1501 1499 1500 1501 1500 1503 1507 1510 1512 1514 1517 1519 1521 1524 1526 1527 1528 1529 1530 1531 1531 1531 1532 1532 1533 1533 1533 1534 1534 1533 1533 1532 1532 1531 1530 1530 1529 1529 1529 1528 1527 1527 1527 1527 1527
1499 1494 1497 1499 1501 1499 1500 1507 1499 1498 1503 1506 1508 1511 1514 1516 1519 1522 1524 1525 1527 1528 1529 1529 1529 1530 1531 1531 1532 1532 1533 1533 1533 1533 1533 1532 1531 1530 1530 1529 1528 1528 1528 1527 1526 1526 1526 1526 1526
1496 1494 1496 1497 1498 1499 1497 1501 1497 1494 1498 1499 1503 1507 1510 1514 1517 1520 1522 1524 1526 1527 1528 1528 1529 1529 1530 1530 1530 1531 1532 1532 1532 1532 1531 1531 1531 1529 1529 1528 1527 1526 1526 1525 1525 1524 1524 1524 1524
1495 1496 1497 1495 1494 1507 1499 1501 1500 1491 1493 1495 1499 1504 1508 1512 1515 1518 1520 1522 1524 1525 1526 1527 1528 1528 1529 1529 1530 1530 1530 1531 1531 1531 1531 1531 1530 1529 1528 1527 1526 1525 1525 1524 1524 1523 1523 1522 1522
1494 1498 1507 1509 1507 1505 1494 1499 1496 1488 1490 1493 1497 1501 1506 1510 1513 1516 1518 1520 1522 1523 1525 1526 1527 1527 1528 1528 1529 1529 1529 1530 1530 1530 1530 1530 1529 1528 1527 1527 1525 1524 1524 1523 1522 1522 1522 1521 1521
1489 1491 1507 1517 1512 1498 1495 1498 1489 1487 1491 1494 1497 1500 1504 1507 1511 1513 1516 1518 1520 1522 1523 1525 1525 1526 1527 1527 1528 1528 1528 1529 1530 1529 1529 1529 1529 1528 1527 1525 1524 1523 1523 1522 1521 1521 1520 1520 1519
1488 1488 1483 1492 1496 1500 1494 1490 1487 1488 1490 1493 1496 1499 1502 1505 1509 1512 1514 1517 1519 1520 1522 1523 1524 1525 1526 1526 1527 1527 1527 1528 1528 1528 1528 1528 1527 1527 1525 1524 1524 1523 1522 1521 1520 1520 1519 1519 1518
1483 1481 1486 1492 1509 1511 1499 1493 1489 1488 1488 1491 1494 1497 1500 1504 1507 1510 1513 1515 1517 1519 1520 1522 1522 1523 1524 1525 1526 1526 1526 1526 1526 1527 1527 1526 1525 1525 1524 1523 1523 1522 1521 1520 1519 1519 1518 1517 1517
1486 1486 1487 1487 1490 1504 1507 1496 1479 1483 1485 1488 1492 1496 1499 1502 1505 1509 1511 1513 1515 1517 1519 1520 1521 1522 1523 1524 1524 1525 1525 1525 1525 1525 1525 1525 1524 1523 1522 1522 1521 1521 1520 1519 1518 1518 1517 1516 1516
1477 1478 1482 1494 1496 1492 1495 1492 1478 1481 1484 1488 1491 1496 1499 1502 1505 1507 1510 1512 1514 1516 1517 1518 1519 1521 1521 1522 1523 1523 1524 1524 1524 1524 1524 1524 1523 1523 1522 1521 1521 1520 1519 1518 1518 1517 1516 1515 1514